Regional Weather Roundup
Issued by NWS

Home | Current Version | Previous Version | Text Only | Print | Product List | Glossary On
Versions: 1 2 3 4 5 6 7 8 9 10 11 12 13 14 15 16 17 18 19 20 21 22 23 24 25 26 27 28 29 30 31 32 33 34 35 36 37 38 39 40 41 42 43 44 45 46 47 48 49 50
000
ASUS43 KLMK 281602
RWRKY
KENTUCKY REGIONAL WEATHER ROUNDUP
NATIONAL WEATHER SERVICE LOUISVILLE KY
1200 PM EDT SAT MAR 28 2015

NOTE "FAIR" INDICATES FEW OR NO CLOUDS BELOW 12,000 FEET
WITH NO SIGNIFICANT WEATHER AND/OR OBSTRUCTIONS TO VISIBILITY.

KYZ001>023-026-027-061>063-070>075-281700-
WESTERN AND SOUTH CENTRAL KENTUCKY

CITY           SKY/WX    TMP DP  RH WIND       PRES   REMARKS
PADUCAH        MOSUNNY   37  19  48 N6        30.32R WCI  32
HENDERSON      SUNNY     30  18  59 NE7       30.34R WCI  23
OWENSBORO      SUNNY     31  16  54 CALM      30.33R
HOPKINSVILLE   MOSUNNY   35  16  44 VRB6      30.30R WCI  30
BOWLING GREEN  SUNNY     34  13  41 NE5       30.30R WCI  30
GLASGOW        NOT AVBL
$$

KYZ024-025-028>034-038-045-046-053-281700-
NORTH CENTRAL KENTUCKY

CITY           SKY/WX    TMP DP  RH WIND       PRES   REMARKS
LOUISVILLE/SDF MOSUNNY   33  16  49 VRB3      30.31R
LOUISVILLE/LOU SUNNY     31  14  49 CALM      30.31R
FORT KNOX      SUNNY     31  14  48 VRB7      30.27R WCI  25
$$

KYZ035>037-039>044-047>052-055>060-089>105-281700-
NORTHEAST KENTUCKY

CITY           SKY/WX    TMP DP  RH WIND       PRES   REMARKS
LEXINGTON      MOSUNNY   32  12  43 NE8       30.26R WCI  25
COVINGTON      MOSUNNY   30  13  49 NE9       30.27S WCI  22
FRANKFORT        N/A    N/A N/A N/A MISG      30.27R
$$

KYZ054-064>069-076>088-106>120-281700-
SOUTHEAST KENTUCKY

CITY           SKY/WX    TMP DP  RH WIND       PRES   REMARKS
JACKSON        SUNNY     31   8  38 VRB3      30.19S
LONDON         SUNNY     34  13  41 NE7       30.21S WCI  28
SOMERSET       NOT AVBL
MIDDLESBORO    MOSUNNY   33  16  50 N5        30.21R WCI  28
MONTICELLO     SUNNY     34  15  46 NW6       30.27R WCI  29
$$



USA.gov is the U.S. government's official web portal to all federal, state and local government web resources and services.